Вернуться в каталог

STARLINK-35073

АктивенСвязьSSO
NORAD 65385·PAYLOAD·🇺🇸 United States

Запущен Aug 30, 2025 с Vandenberg Space Force Base

Loading…

Ближайшие Пролёты (ближайшие 24 часа)

TLE

СвежийSource: CelesTrak SupGP

Эпоха: Sep 14, 2026, 14:04 UTC

1 65385C 25191G   26257.58659722  .00049457  00000+0  15351-2 0  2573
2 65385  97.2839 123.7022 0001709  87.9255 238.7419 15.33416002    17

Отслеживайте STARLINK-35073 в реальном времени с AllMySat

Download on the App Store